sat.trackr.live / text

‹ back to catalog

STARLINK-30512

NORAD 57976 · 2023-151N

PAYLOAD ACTIVE UNKNOWN

§ Identity

Operator
Country
US
Launch date
2023-09-30
Launch site
AFETR
Launch vehicle
Mass (kg)
RCS (m²)

Purposes: comms

External: N2YO · Heavens-Above · Gunter

§ Orbital elements

Epoch: 2026-09-20T10:46:08.688288Z

Period
94.27 min
Inclination
43.0026°
Eccentricity
0.0001246
Mean motion
15.27580075 rev/d
Perigee alt
482.2 km
Apogee alt
483.9 km
Semi-major
6,861.2 km
B*
1.1552e-5
RAAN
315.9301°
Arg perigee
283.4007°
Mean anomaly
76.6706°
Rev number
16,555

§ Raw data

STARLINK-305121 57976U 23151N   26263.44871167  .00000056  00000+0  11552-4 0  99912 57976  43.0026 315.9301 0001246 283.4007  76.6706 15.27580075165554

JSON: /api/v1/satellites/57976 · /tle

For live sub-satellite position, see the globe view (requires WebGL).

§ Visibility from observer

Set your observer location to see the next 7 days of passes ≥ 10°. The values pass through the URL so the page stays shareable.

No JS? Fill the form by hand. The geolocation button needs JavaScript.